星链-1625 (STARLINK-1625 )

导读 | 豆包AI

STARLINK-1625是美国太空探索技术公司(SpaceX)于2020年8月18日发射的星链(Starlink)卫星,归属美国太空发展局(SDA)。它作为星链计划的组成部分,旨在构建全球卫星互联网星座,为全球提供高速低延迟宽带网络服务,该卫星运行在近地轨道,助力星链组网覆盖推进。

基本信息
目录编号:
46131
目录名称:
STARLINK-1625
国际标识:
2020-057Q
轨道中心:
EARTH
卫星名称:
星链-1625
卫星全名:
星链-1625 (STARLINK-1625 )
卫星状态:
在轨 (已飞行2034 天)
发射日期:
2020-08-18 UTC
国别 :
美国 (US)
星等 :
--
轨道信息
数据来源 国际轨道数据
星历时间: 2026-03-14T08:00:02+0800
9小时前
查看轨道信息
半长轴: 6689.859km
偏心率: 0.0005846
轨道倾角: 53.044°
近地点辐角 271.395°
升交点赤经 226.347°
平近点角 259.897°
近地点: 307.811km
远地点: 315.633km
周期: 90.758分钟
每日圈数: 15.866362
详细信息
固有亮度:
5
最大亮度:
2.5
卫星平台:
Starlink V1.0
覆盖范围:
全球
运营商:
太空探索技术公司
运营商所在国:
美国
制造商(研发单位):
太空探索技术公司
制造商所在国:
美国
使用方式:
暂无
卫星简介
星链(Starlink)计划是由太空探索技术公司(SpaceX)提出的一个巨型低轨卫星互联网星座项目,计划在2019年至2024年间在太空搭建由约1.2万颗卫星组成的“星链”网络,其中1584颗将部署在地球上空550千米处的近地轨道,并从2020年开始工作。该卫星仍在工作。
2D轨道图
3D轨道图
轨道高度分析图
轨道倾角分析图
轨道综合分析图
查看轨道综合分析图